SWA4569 KMCO-KSTL

Flight info

Callsign SWA4569
Flight time 2h 15m
Altitude 34000
Route RDSOX1 JFRYS PATOY Q116 VLKNN GETME J151 VISQA BOOSH3
Aircraft B738/M-SDE2E3FGHIRWXY/LB1

Departure

Time 2026-05-04 16:57
Airport Orlando International Airport (KMCO)

Arrival

Time 2026-05-04 19:13
Airport St. Louis Lambert International Airport (KSTL)
Time Latitude Longitude Altitude Speed Heading
2026-05-04 16:25 28.43431 -81.29989 100 ft 0 kts 285°
2026-05-04 16:46 28.43430 -81.29989 100 ft 1 kts 285°
2026-05-04 16:47 28.43434 -81.29937 100 ft 4 kts 272°
2026-05-04 16:47 28.43415 -81.29887 97 ft 4 kts 349°
2026-05-04 16:48 28.43410 -81.29886 98 ft 1 kts
2026-05-04 16:51 28.43417 -81.29886 97 ft 5 kts
2026-05-04 16:51 28.43441 -81.29775 103 ft 12 kts 89°
2026-05-04 16:52 28.43326 -81.29710 106 ft 10 kts 180°
2026-05-04 16:52 28.43259 -81.29709 105 ft 9 kts 180°
2026-05-04 16:53 28.43085 -81.29707 102 ft 15 kts 179°
2026-05-04 16:53 28.42846 -81.29704 104 ft 29 kts 178°
2026-05-04 16:54 28.42641 -81.29703 99 ft 29 kts 180°
2026-05-04 16:55 28.41912 -81.29695 102 ft 29 kts 180°
2026-05-04 16:55 28.41434 -81.29690 101 ft 34 kts 180°
2026-05-04 16:56 28.40993 -81.29685 97 ft 25 kts 179°
2026-05-04 16:56 28.41310 -81.29565 101 ft 85 kts 359°
2026-05-04 16:57 28.42160 -81.29573 102 ft 158 kts
2026-05-04 16:57 28.44589 -81.29637 1830 ft 180 kts
2026-05-04 16:58 28.48707 -81.31141 3217 ft 249 kts 304°
2026-05-04 16:58 28.49215 -81.33043 3888 ft 258 kts 275°
2026-05-04 16:59 28.48893 -81.37322 5176 ft 283 kts 262°
2026-05-04 17:00 28.47810 -81.45919 9182 ft 269 kts 262°
2026-05-04 17:00 28.47039 -81.52581 10682 ft 314 kts 262°
2026-05-04 17:01 28.46445 -81.57842 11299 ft 349 kts 263°
2026-05-04 17:01 28.45824 -81.63372 12716 ft 356 kts 263°
2026-05-04 17:02 28.45190 -81.69017 14002 ft 365 kts 263°
2026-05-04 17:02 28.44541 -81.74767 15346 ft 367 kts 263°
2026-05-04 17:03 28.44216 -81.77646 16012 ft 369 kts 263°
2026-05-04 17:03 28.43892 -81.80507 16660 ft 370 kts 263°
2026-05-04 17:03 28.43230 -81.86335 17951 ft 373 kts 263°
2026-05-04 17:04 28.43453 -81.92196 19099 ft 377 kts 286°
2026-05-04 17:04 28.46007 -81.97420 20205 ft 384 kts 304°
2026-05-04 17:05 28.48701 -82.01446 21110 ft 386 kts 304°
2026-05-04 17:05 28.51988 -82.06342 22058 ft 392 kts 304°
2026-05-04 17:06 28.55827 -82.12137 23169 ft 397 kts 303°
2026-05-04 17:06 28.56948 -82.13841 23483 ft 398 kts 303°
2026-05-04 17:07 28.60263 -82.18893 24251 ft 402 kts 303°
2026-05-04 17:07 28.61397 -82.20623 24507 ft 403 kts 303°
2026-05-04 17:07 28.63621 -82.24020 25066 ft 404 kts 303°
2026-05-04 17:07 28.65300 -82.26586 25483 ft 404 kts 302°
2026-05-04 17:08 28.66986 -82.29166 25866 ft 406 kts 302°
2026-05-04 17:08 28.70367 -82.34342 26586 ft 409 kts 302°
2026-05-04 17:08 28.72064 -82.36944 26929 ft 410 kts 302°
2026-05-04 17:09 28.73771 -82.39560 27272 ft 412 kts 302°
2026-05-04 17:09 28.75480 -82.42183 27651 ft 413 kts 302°
2026-05-04 17:09 28.77188 -82.44805 28056 ft 412 kts 302°
2026-05-04 17:10 28.80586 -82.50025 28880 ft 410 kts 302°
2026-05-04 17:10 28.85603 -82.57756 30474 ft 399 kts 301°
2026-05-04 17:11 28.87259 -82.60307 30807 ft 399 kts 301°
2026-05-04 17:11 28.88918 -82.62852 31129 ft 399 kts 301°
2026-05-04 17:11 28.92210 -82.67931 31888 ft 396 kts 301°
2026-05-04 17:12 28.93845 -82.70457 32252 ft 395 kts 301°
2026-05-04 17:12 28.97082 -82.75465 32906 ft 393 kts 301°
2026-05-04 17:13 29.01950 -82.83009 33768 ft 394 kts 301°
2026-05-04 17:14 29.07139 -82.90392 34139 ft 405 kts 310°
2026-05-04 17:14 29.09328 -82.92437 34113 ft 407 kts 317°
2026-05-04 17:15 29.16214 -82.97974 34113 ft 402 kts 317°
2026-05-04 17:16 29.25348 -83.05431 34104 ft 404 kts 317°
2026-05-04 17:17 29.34467 -83.12904 34112 ft 405 kts 317°
2026-05-04 17:18 29.43640 -83.20440 34115 ft 406 kts 317°
2026-05-04 17:19 29.52811 -83.27990 34108 ft 405 kts 317°
2026-05-04 17:20 29.61950 -83.35533 34110 ft 404 kts 317°
2026-05-04 17:20 29.68764 -83.41169 34122 ft 404 kts 317°
2026-05-04 17:21 29.77878 -83.48722 34118 ft 403 kts 317°
2026-05-04 17:22 29.82421 -83.52494 34116 ft 402 kts 317°
2026-05-04 17:23 29.91495 -83.60034 34122 ft 402 kts 317°
2026-05-04 17:24 29.98303 -83.65702 34129 ft 403 kts 317°
2026-05-04 17:25 30.07394 -83.73286 34115 ft 403 kts 317°
2026-05-04 17:26 30.16450 -83.80859 34120 ft 403 kts 317°
2026-05-04 17:27 30.27785 -83.90366 34129 ft 403 kts 317°
2026-05-04 17:28 30.36852 -83.97995 34118 ft 403 kts 317°
2026-05-04 17:29 30.50401 -84.09428 34120 ft 402 kts 317°
2026-05-04 17:31 30.61696 -84.18989 34123 ft 401 kts 317°
2026-05-04 17:32 30.72939 -84.28537 34118 ft 401 kts 317°
2026-05-04 17:33 30.81950 -84.36208 34122 ft 401 kts 317°
2026-05-04 17:34 30.90967 -84.43903 34122 ft 402 kts 317°
2026-05-04 17:35 31.02221 -84.53530 34131 ft 400 kts 317°
2026-05-04 17:36 31.06706 -84.57377 34129 ft 400 kts 317°
2026-05-04 17:36 31.11186 -84.61223 34127 ft 399 kts 317°
2026-05-04 17:37 31.15653 -84.65062 34136 ft 399 kts 317°
2026-05-04 17:37 31.20121 -84.68907 34133 ft 398 kts 317°
2026-05-04 17:38 31.24549 -84.72722 34119 ft 397 kts 317°
2026-05-04 17:38 31.28988 -84.76552 34120 ft 396 kts 317°
2026-05-04 17:39 31.35624 -84.82285 34119 ft 395 kts 317°
2026-05-04 17:39 31.40037 -84.86103 34121 ft 394 kts 317°
2026-05-04 17:40 31.44451 -84.89927 34126 ft 394 kts 316°
2026-05-04 17:40 31.48857 -84.93749 34125 ft 394 kts 316°
2026-05-04 17:41 31.53262 -84.97574 34121 ft 394 kts 316°
2026-05-04 17:41 31.57667 -85.01404 34117 ft 393 kts 316°
2026-05-04 17:42 31.62021 -85.05208 34128 ft 393 kts 316°
2026-05-04 17:42 31.66404 -85.09048 34122 ft 393 kts 316°
2026-05-04 17:43 31.70781 -85.12887 34175 ft 393 kts 316°
2026-05-04 17:43 31.75162 -85.16734 34133 ft 393 kts 316°
2026-05-04 17:44 31.79540 -85.20575 34134 ft 391 kts 316°
2026-05-04 17:44 31.83860 -85.24376 34129 ft 389 kts 316°
2026-05-04 17:45 31.88185 -85.28192 34131 ft 388 kts 316°
2026-05-04 17:45 31.92501 -85.32001 34109 ft 387 kts 316°
2026-05-04 17:46 31.96805 -85.35804 34100 ft 386 kts 316°
2026-05-04 17:46 32.01103 -85.39605 34115 ft 387 kts 316°
2026-05-04 17:47 32.05411 -85.43420 34101 ft 386 kts 316°
2026-05-04 17:47 32.09683 -85.47206 34097 ft 386 kts 316°
2026-05-04 17:48 32.13968 -85.51009 34094 ft 385 kts 316°
2026-05-04 17:48 32.18252 -85.54816 34095 ft 385 kts 316°
2026-05-04 17:49 32.22533 -85.58625 34097 ft 385 kts 316°
2026-05-04 17:49 32.26809 -85.62433 34095 ft 385 kts 316°
2026-05-04 17:50 32.30369 -85.65609 34104 ft 387 kts 316°
2026-05-04 17:50 32.34672 -85.69452 34097 ft 388 kts 316°
2026-05-04 17:51 32.38996 -85.73316 34098 ft 390 kts 316°
2026-05-04 17:51 32.43340 -85.77204 34091 ft 391 kts 316°
2026-05-04 17:52 32.47682 -85.81094 34093 ft 392 kts 316°
2026-05-04 17:52 32.52041 -85.85005 34090 ft 393 kts 316°
2026-05-04 17:53 32.56380 -85.88898 34109 ft 394 kts 317°
2026-05-04 17:53 32.60765 -85.92840 34090 ft 396 kts 317°
2026-05-04 17:54 32.65161 -85.96803 34086 ft 397 kts 317°
2026-05-04 17:54 32.69564 -86.00774 34086 ft 398 kts 317°
2026-05-04 17:55 32.73972 -86.04754 34092 ft 398 kts 317°
2026-05-04 17:55 32.78379 -86.08737 34088 ft 398 kts 317°
2026-05-04 17:56 32.82792 -86.12731 34087 ft 398 kts 317°
2026-05-04 17:56 32.87209 -86.16735 34098 ft 399 kts 317°
2026-05-04 17:57 32.91610 -86.20728 34089 ft 400 kts 318°
2026-05-04 17:57 32.96035 -86.24749 34082 ft 400 kts 318°
2026-05-04 17:58 33.00461 -86.28775 34091 ft 400 kts 318°
2026-05-04 17:58 33.04898 -86.32817 34106 ft 401 kts 318°
2026-05-04 17:59 33.09325 -86.36855 34115 ft 401 kts 318°
2026-05-04 18:00 33.15946 -86.42904 34109 ft 402 kts 318°
2026-05-04 18:00 33.20388 -86.46969 34109 ft 402 kts 318°
2026-05-04 18:01 33.24831 -86.51040 34104 ft 402 kts 318°
2026-05-04 18:01 33.29266 -86.55110 34088 ft 402 kts 318°
2026-05-04 18:02 33.35908 -86.61215 34087 ft 402 kts 318°
2026-05-04 18:02 33.40347 -86.65301 34099 ft 402 kts 318°
2026-05-04 18:03 33.44784 -86.69391 34104 ft 402 kts 318°
2026-05-04 18:03 33.49222 -86.73491 34101 ft 402 kts 318°
2026-05-04 18:04 33.53624 -86.77557 34102 ft 402 kts 318°
2026-05-04 18:05 33.60266 -86.83706 34103 ft 402 kts 318°
2026-05-04 18:05 33.64679 -86.87804 34128 ft 400 kts 318°
2026-05-04 18:06 33.71530 -86.93624 34089 ft 404 kts 322°
2026-05-04 18:06 33.76230 -86.97246 34056 ft 399 kts 323°
2026-05-04 18:07 33.80911 -87.00889 34071 ft 403 kts 322°
2026-05-04 18:07 33.85640 -87.04608 34067 ft 407 kts 322°
2026-05-04 18:08 33.90379 -87.08346 34070 ft 408 kts 322°
2026-05-04 18:08 33.95127 -87.12097 34056 ft 408 kts 322°
2026-05-04 18:09 34.04611 -87.19601 34081 ft 409 kts 322°
2026-05-04 18:10 34.09372 -87.23374 34084 ft 409 kts 322°
2026-05-04 18:10 34.14132 -87.27152 34062 ft 408 kts 322°
2026-05-04 18:11 34.18875 -87.30922 34081 ft 408 kts 322°
2026-05-04 18:11 34.23616 -87.34696 34044 ft 408 kts 322°
2026-05-04 18:12 34.28325 -87.38450 34041 ft 407 kts 322°
2026-05-04 18:12 34.33054 -87.42225 34025 ft 407 kts 322°
2026-05-04 18:13 34.37776 -87.45999 34031 ft 406 kts 322°
2026-05-04 18:14 34.44859 -87.51659 34021 ft 407 kts 322°
2026-05-04 18:14 34.49584 -87.55460 34041 ft 408 kts 322°
2026-05-04 18:15 34.59063 -87.63081 34029 ft 409 kts 322°
2026-05-04 18:16 34.63818 -87.66910 34024 ft 410 kts 322°
2026-05-04 18:16 34.68547 -87.70724 34026 ft 410 kts 322°
2026-05-04 18:17 34.75683 -87.76487 34028 ft 410 kts 323°
2026-05-04 18:18 34.82818 -87.82262 34020 ft 410 kts 323°
2026-05-04 18:18 34.87575 -87.86120 34019 ft 410 kts 323°
2026-05-04 18:19 34.94669 -87.91884 34003 ft 410 kts 323°
2026-05-04 18:19 34.99414 -87.95746 34013 ft 410 kts 323°
2026-05-04 18:20 35.04168 -87.99620 34001 ft 410 kts 323°
2026-05-04 18:20 35.08910 -88.03490 33999 ft 410 kts 323°
2026-05-04 18:21 35.13666 -88.07377 33993 ft 410 kts 323°
2026-05-04 18:21 35.18372 -88.11229 33999 ft 410 kts 323°
2026-05-04 18:22 35.23105 -88.15109 33978 ft 409 kts 323°
2026-05-04 18:22 35.27840 -88.19001 33978 ft 410 kts 322°
2026-05-04 18:23 35.32582 -88.22896 33981 ft 410 kts 322°
2026-05-04 18:23 35.37318 -88.26793 33984 ft 410 kts 322°
2026-05-04 18:24 35.42052 -88.30696 33983 ft 410 kts 322°
2026-05-04 18:24 35.46780 -88.34600 33978 ft 410 kts 322°
2026-05-04 18:25 35.51482 -88.38487 33992 ft 410 kts 322°
2026-05-04 18:25 35.56214 -88.42405 33982 ft 410 kts 322°
2026-05-04 18:26 35.60956 -88.46340 33972 ft 410 kts 322°
2026-05-04 18:26 35.65691 -88.50276 33980 ft 410 kts 322°
2026-05-04 18:27 35.70420 -88.54212 33973 ft 410 kts 322°
2026-05-04 18:27 35.75146 -88.58153 33996 ft 410 kts 322°
2026-05-04 18:28 35.79865 -88.62094 33977 ft 410 kts 322°
2026-05-04 18:28 35.84554 -88.66028 33964 ft 410 kts 322°
2026-05-04 18:29 35.89268 -88.69977 33955 ft 409 kts 322°
2026-05-04 18:29 35.93987 -88.73923 33955 ft 409 kts 322°
2026-05-04 18:30 36.01040 -88.79853 33948 ft 408 kts 322°
2026-05-04 18:31 36.05741 -88.83805 33940 ft 408 kts 322°
2026-05-04 18:31 36.10396 -88.87729 33931 ft 408 kts 322°
2026-05-04 18:32 36.15081 -88.91685 33932 ft 407 kts 322°
2026-05-04 18:32 36.19759 -88.95640 33921 ft 407 kts 322°
2026-05-04 18:33 36.24431 -88.99597 33935 ft 407 kts 322°
2026-05-04 18:33 36.29134 -89.03512 33919 ft 408 kts 326°
2026-05-04 18:34 36.34317 -89.06500 33927 ft 411 kts 332°
2026-05-04 18:34 36.38674 -89.08849 33924 ft 410 kts 332°
2026-05-04 18:35 36.44747 -89.12154 33923 ft 409 kts 332°
2026-05-04 18:35 36.49951 -89.15015 33931 ft 409 kts 332°
2026-05-04 18:36 36.54273 -89.17402 33921 ft 409 kts 332°
2026-05-04 18:36 36.59472 -89.20278 33905 ft 408 kts 332°
2026-05-04 18:37 36.63904 -89.22734 33910 ft 408 kts 332°
2026-05-04 18:37 36.65186 -89.23445 33898 ft 408 kts 331°
2026-05-04 18:38 36.70360 -89.26316 33894 ft 407 kts 332°
2026-05-04 18:38 36.75542 -89.29196 33907 ft 406 kts 331°
2026-05-04 18:39 36.80663 -89.32046 33874 ft 403 kts 331°
2026-05-04 18:39 36.83217 -89.33467 33522 ft 399 kts 331°
2026-05-04 18:39 36.85726 -89.34863 33127 ft 392 kts 331°
2026-05-04 18:39 36.88199 -89.36241 32766 ft 387 kts 331°
2026-05-04 18:40 36.90652 -89.37610 32342 ft 384 kts 331°
2026-05-04 18:40 36.93080 -89.38967 31942 ft 380 kts 331°
2026-05-04 18:40 36.95487 -89.40314 31541 ft 376 kts 331°
2026-05-04 18:40 36.97869 -89.41647 31152 ft 375 kts 330°
2026-05-04 18:41 37.00276 -89.42998 30801 ft 381 kts 330°
2026-05-04 18:41 37.02693 -89.44356 30382 ft 379 kts 330°
2026-05-04 18:41 37.05097 -89.45704 29981 ft 377 kts 330°
2026-05-04 18:41 37.07456 -89.47026 29525 ft 374 kts 330°
2026-05-04 18:42 37.09821 -89.48353 29089 ft 371 kts 330°
2026-05-04 18:42 37.12165 -89.49669 28687 ft 367 kts 330°
2026-05-04 18:42 37.14485 -89.50972 28290 ft 363 kts 330°
2026-05-04 18:42 37.16783 -89.52264 27885 ft 361 kts 330°
2026-05-04 18:43 37.19068 -89.53551 27480 ft 359 kts 330°
2026-05-04 18:43 37.21339 -89.54831 27087 ft 357 kts 330°
2026-05-04 18:43 37.23611 -89.56114 26732 ft 359 kts 330°
2026-05-04 18:43 37.25896 -89.57405 26326 ft 360 kts 330°
2026-05-04 18:44 37.28172 -89.58690 25894 ft 358 kts 330°
2026-05-04 18:44 37.29671 -89.59537 25642 ft 356 kts 330°
2026-05-04 18:44 37.32682 -89.61237 25108 ft 353 kts 330°
2026-05-04 18:44 37.34912 -89.62498 24725 ft 351 kts 330°
2026-05-04 18:45 37.37139 -89.63758 24342 ft 349 kts 330°
2026-05-04 18:45 37.39350 -89.65011 23952 ft 348 kts 330°
2026-05-04 18:45 37.41527 -89.66245 23566 ft 347 kts 330°
2026-05-04 18:45 37.43731 -89.67495 23131 ft 346 kts 330°
2026-05-04 18:46 37.45926 -89.68741 22708 ft 344 kts 330°
2026-05-04 18:46 37.48108 -89.69980 22320 ft 342 kts 330°
2026-05-04 18:46 37.50272 -89.71209 21932 ft 340 kts 330°
2026-05-04 18:46 37.52422 -89.72431 21549 ft 338 kts 330°
2026-05-04 18:47 37.54558 -89.73646 21174 ft 336 kts 330°
2026-05-04 18:47 37.56683 -89.74856 20792 ft 334 kts 330°
2026-05-04 18:47 37.58790 -89.76056 20424 ft 332 kts 330°
2026-05-04 18:47 37.60893 -89.77255 20056 ft 331 kts 330°
2026-05-04 18:48 37.62989 -89.78451 19690 ft 330 kts 330°
2026-05-04 18:48 37.65085 -89.79649 19332 ft 331 kts 330°
2026-05-04 18:48 37.67188 -89.80852 18957 ft 332 kts 330°
2026-05-04 18:48 37.69292 -89.82054 18576 ft 332 kts 330°
2026-05-04 18:49 37.71397 -89.83257 18196 ft 331 kts 330°
2026-05-04 18:49 37.73467 -89.84442 17797 ft 331 kts 330°
2026-05-04 18:49 37.75563 -89.85641 17391 ft 330 kts 330°
2026-05-04 18:49 37.77646 -89.86834 17010 ft 328 kts 330°
2026-05-04 18:50 37.79723 -89.88024 16639 ft 326 kts 330°
2026-05-04 18:50 37.81780 -89.89204 16270 ft 324 kts 330°
2026-05-04 18:50 37.83831 -89.90381 15936 ft 321 kts 330°
2026-05-04 18:50 37.85847 -89.91538 15694 ft 317 kts 330°
2026-05-04 18:51 37.87855 -89.92694 15374 ft 318 kts 330°
2026-05-04 18:51 37.89876 -89.93858 15038 ft 321 kts 330°
2026-05-04 18:51 37.91910 -89.95028 14672 ft 320 kts 330°
2026-05-04 18:51 37.93936 -89.96195 14317 ft 319 kts 330°
2026-05-04 18:52 37.95966 -89.97357 13862 ft 323 kts 330°
2026-05-04 18:52 37.98002 -89.98507 13424 ft 325 kts 330°
2026-05-04 18:52 38.00068 -89.99668 13034 ft 324 kts 330°
2026-05-04 18:52 38.02123 -90.00824 12656 ft 322 kts 330°
2026-05-04 18:53 38.04165 -90.01976 12291 ft 320 kts 330°
2026-05-04 18:53 38.06198 -90.03123 11937 ft 319 kts 330°
2026-05-04 18:53 38.08220 -90.04267 11585 ft 317 kts 330°
2026-05-04 18:53 38.10227 -90.05403 11243 ft 315 kts 330°
2026-05-04 18:54 38.12230 -90.06531 10894 ft 314 kts 332°
2026-05-04 18:54 38.14366 -90.07208 10541 ft 321 kts 350°
2026-05-04 18:54 38.16568 -90.07399 10375 ft 313 kts 351°
2026-05-04 18:54 38.18719 -90.07583 10227 ft 305 kts 351°
2026-05-04 18:55 38.20812 -90.07788 10092 ft 298 kts 350°
2026-05-04 18:55 38.24894 -90.08234 9595 ft 293 kts 350°
2026-05-04 18:55 38.26913 -90.08459 9301 ft 292 kts 350°
2026-05-04 18:56 38.28939 -90.08684 8979 ft 291 kts 350°
2026-05-04 18:56 38.30951 -90.08908 8698 ft 289 kts 349°
2026-05-04 18:56 38.32950 -90.09130 8411 ft 288 kts 349°
2026-05-04 18:56 38.34916 -90.09349 8143 ft 286 kts 349°
2026-05-04 18:57 38.36888 -90.09595 7855 ft 284 kts 346°
2026-05-04 18:57 38.38829 -90.10014 7570 ft 281 kts 343°
2026-05-04 18:57 38.40743 -90.10510 7280 ft 280 kts 342°
2026-05-04 18:57 38.42651 -90.11038 6975 ft 280 kts 341°
2026-05-04 18:58 38.44535 -90.11566 6689 ft 279 kts 341°
2026-05-04 18:58 38.46448 -90.12100 6404 ft 279 kts 341°
2026-05-04 18:58 38.48346 -90.12646 6109 ft 279 kts 341°
2026-05-04 18:58 38.50249 -90.13171 5800 ft 279 kts 342°
2026-05-04 18:59 38.52135 -90.13668 5495 ft 274 kts 342°
2026-05-04 18:59 38.53980 -90.14154 5214 ft 269 kts 342°
2026-05-04 18:59 38.55826 -90.14604 4952 ft 272 kts 344°
2026-05-04 18:59 38.57663 -90.15034 4681 ft 271 kts 343°
2026-05-04 19:00 38.59538 -90.15484 4164 ft 276 kts 343°
2026-05-04 19:00 38.61419 -90.15878 3873 ft 270 kts 346°
2026-05-04 19:00 38.63257 -90.16221 3602 ft 262 kts 348°
2026-05-04 19:00 38.65042 -90.16502 3345 ft 254 kts 345°
2026-05-04 19:01 38.66603 -90.17302 3086 ft 233 kts 312°
2026-05-04 19:01 38.67595 -90.18797 2894 ft 211 kts 292°
2026-05-04 19:01 38.68121 -90.20453 2663 ft 193 kts 279°
2026-05-04 19:01 38.68516 -90.22056 2402 ft 184 kts 280°
2026-05-04 19:02 38.68889 -90.23543 2244 ft 164 kts 279°
2026-05-04 19:02 38.69221 -90.24850 2228 ft 153 kts 278°
2026-05-04 19:02 38.69598 -90.26129 2129 ft 160 kts 288°
2026-05-04 19:02 38.70179 -90.27325 1942 ft 155 kts 294°
2026-05-04 19:03 38.70744 -90.28464 1744 ft 147 kts 290°
2026-05-04 19:03 38.71290 -90.29591 1558 ft 150 kts 290°
2026-05-04 19:03 38.71829 -90.30700 1367 ft 146 kts 295°
2026-05-04 19:03 38.72387 -90.31803 1209 ft 149 kts 293°
2026-05-04 19:04 38.72961 -90.32949 1013 ft 156 kts 297°
2026-05-04 19:04 38.73531 -90.34129 736 ft 157 kts 292°
2026-05-04 19:04 38.74103 -90.35299 588 ft 147 kts 294°
2026-05-04 19:04 38.74651 -90.36403 731 ft 162 kts 294°
2026-05-04 19:05 38.75232 -90.37614 1676 ft 166 kts 294°
2026-05-04 19:05 38.75880 -90.38983 2457 ft 200 kts 299°
2026-05-04 19:05 38.77133 -90.40203 2925 ft 249 kts 320°
2026-05-04 19:05 38.78714 -90.41544 3009 ft 295 kts 318°
2026-05-04 19:06 38.80404 -90.43077 2983 ft 292 kts 317°
2026-05-04 19:06 38.82007 -90.44526 2951 ft 271 kts 317°
2026-05-04 19:06 38.83533 -90.45824 2898 ft 256 kts 319°
2026-05-04 19:06 38.84991 -90.47029 2881 ft 242 kts 318°
2026-05-04 19:07 38.86349 -90.48148 2902 ft 228 kts 317°
2026-05-04 19:07 38.87488 -90.49456 2921 ft 217 kts 302°
2026-05-04 19:07 38.88487 -90.50892 2901 ft 213 kts 303°
2026-05-04 19:07 38.89400 -90.52339 2660 ft 202 kts 288°
2026-05-04 19:08 38.89581 -90.54015 2535 ft 189 kts 251°
2026-05-04 19:08 38.88901 -90.55374 2467 ft 184 kts 215°
2026-05-04 19:08 38.87695 -90.55808 2446 ft 187 kts 180°
2026-05-04 19:08 38.86497 -90.55170 2452 ft 187 kts 158°
2026-05-04 19:09 38.85415 -90.54328 2437 ft 178 kts 159°
2026-05-04 19:09 38.84361 -90.53507 2438 ft 176 kts 158°
2026-05-04 19:09 38.83314 -90.52687 2451 ft 178 kts 159°
2026-05-04 19:09 38.82270 -90.51790 2457 ft 188 kts 146°
2026-05-04 19:10 38.81526 -90.50331 2494 ft 199 kts 129°
2026-05-04 19:10 38.80800 -90.48889 2473 ft 181 kts 134°
2026-05-04 19:10 38.80159 -90.47612 2440 ft 162 kts 134°
2026-05-04 19:10 38.79562 -90.46408 2231 ft 157 kts 134°
2026-05-04 19:11 38.78995 -90.45260 2043 ft 153 kts 135°
2026-05-04 19:11 38.78423 -90.44097 1817 ft 158 kts 131°
2026-05-04 19:11 38.77865 -90.42914 1597 ft 153 kts 139°
2026-05-04 19:11 38.77279 -90.41747 1406 ft 159 kts 137°
2026-05-04 19:12 38.76674 -90.40557 1171 ft 156 kts 125°
2026-05-04 19:12 38.75592 -90.38323 689 ft 141 kts 130°
2026-05-04 19:12 38.75074 -90.37269 564 ft 133 kts 130°
2026-05-04 19:13 38.74666 -90.36453 563 ft 79 kts 120°
2026-05-04 19:13 38.74485 -90.36085 567 ft 20 kts 125°
2026-05-04 19:13 38.74411 -90.35947 579 ft 17 kts 119°
2026-05-04 19:13 38.74333 -90.35781 578 ft 29 kts 122°
2026-05-04 19:14 38.74222 -90.35744 576 ft 16 kts 206°
2026-05-04 19:14 38.74163 -90.35711 575 ft 10 kts 122°
2026-05-04 19:14 38.74122 -90.35627 578 ft 15 kts 122°
2026-05-04 19:14 38.74024 -90.35596 577 ft 14 kts 174°
2026-05-04 19:15 38.73943 -90.35626 576 ft 9 kts 207°
2026-05-04 19:15 38.73894 -90.35602 575 ft 9 kts 123°
2026-05-04 19:15 38.73860 -90.35535 578 ft 10 kts 122°
2026-05-04 19:15 38.73814 -90.35479 577 ft 9 kts 185°
2026-05-04 19:16 38.73776 -90.35503 575 ft 0 kts 212°